FW6490 Weather Reports


time (UTC)temp
F
wind
direction
speed
knots
gust
knots
rain 1hr
in
rain 24hr
in
rain mn
in
humidity
%
barometer
mb
20260831004622 68 294 3.5 8.7 0.00 0.00 0.00 69 1007.9
20260831003616 68 323 4.3 10.4 0.00 0.00 0.00 68 1007.8
20260831003114 69 321 3.5 10.4 0.00 0.00 0.00 67 1007.8
20260831002109 69 304 4.3 8.7 0.00 0.00 0.00 67 1007.7
20260831001607 70 303 3.5 8.7 0.00 0.00 0.00 66 1007.7
20260831001107 70 351 3.5 7.0 0.00 0.00 0.00 66 1007.6
20260831000608 70 304 3.5 7.8 0.00 0.00 0.00 65 1007.6
20260831000111 70 340 3.5 7.8 0.00 0.00 0.00 65 1007.6
20260830235610 70 309 4.3 9.6 0.00 0.00 0.00 65 1007.6
20260830235105 70 300 3.5 9.6 0.00 0.00 0.00 65 1007.6
20260830234104 70 331 4.3 9.6 0.00 0.00 0.00 65 1007.7
20260830233100 70 315 5.2 10.4 0.00 0.00 0.00 65 1007.7
20260830232559 71 18 4.3 9.6 0.00 0.00 0.00 64 1007.9
20260830231556 71 323 4.3 9.6 0.00 0.00 0.00 63 1008.0
20260830231054 72 311 4.3 9.6 0.00 0.00 0.00 63 1008.1
20260830230552 72 321 4.3 9.6 0.00 0.00 0.00 63 1008.1
20260830230049 72 315 4.3 7.8 0.00 0.00 0.00 62 1008.1
20260830225546 73 315 3.5 8.7 0.00 0.00 0.00 61 1008.1
20260830225048 73 332 3.5 8.7 0.00 0.00 0.00 61 1008.1
20260830224546 73 309 3.5 7.8 0.00 0.00 0.00 61 1008.1
20260830223543 73 324 3.5 8.7 0.00 0.00 0.00 61 1008.2
20260830223039 73 344 3.5 8.7 0.00 0.00 0.00 61 1008.2
20260830222036 73 328 3.5 7.8 0.00 0.00 0.00 61 1008.2
20260830221536 73 302 4.3 7.8 0.00 0.00 0.00 61 1008.2
20260830220536 73 277 4.3 8.7 0.00 0.00 0.00 61 1008.3
20260830220038 74 318 3.5 8.7 0.00 0.00 0.00 60 1008.3
20260830215536 74 334 3.5 8.7 0.00 0.00 0.00 60 1008.6
20260830215034 73 273 4.3 7.8 0.00 0.00 0.00 61 1008.6
20260830214538 74 16 4.3 8.7 0.00 0.00 0.00 60 1008.6
20260830214037 74 295 3.5 8.7 0.00 0.00 0.00 61 1008.6
20260830213534 73 333 4.3 8.7 0.00 0.00 0.00 61 1008.6
20260830213036 73 317 4.3 9.6 0.00 0.00 0.00 62 1008.6
20260830212532 73 346 4.3 9.6 0.00 0.00 0.00 61 1008.7
20260830212032 72 25 4.3 9.6 0.00 0.00 0.00 61 1008.7
20260830211529 72 348 4.3 9.6 0.00 0.00 0.00 61 1008.7
20260830211028 73 323 4.3 8.7 0.00 0.00 0.00 61 1008.7
20260830210527 72 315 4.3 7.8 0.00 0.00 0.00 62 1008.7
20260830210026 72 319 4.3 8.7 0.00 0.00 0.00 62 1008.7
20260830205524 71 311 5.2 9.6 0.00 0.00 0.00 63 1008.6
20260830205022 72 292 4.3 9.6 0.00 0.00 0.00 63 1008.7
20260830204522 72 317 4.3 9.6 0.00 0.00 0.00 63 1008.7
20260830204022 73 321 4.3 9.6 0.00 0.00 0.00 61 1008.7
20260830203518 73 312 4.3 8.7 0.00 0.00 0.00 61 1008.7
20260830203016 73 323 3.5 8.7 0.00 0.00 0.00 61 1008.7
20260830202514 73 311 3.5 8.7 0.00 0.00 0.00 62 1008.6
20260830202015 72 316 4.3 11.3 0.00 0.00 0.00 63 1008.6
20260830201514 72 339 5.2 11.3 0.00 0.00 0.00 63 1008.6
20260830201010 71 307 5.2 8.7 0.00 0.00 0.00 64 1008.6
20260830200508 71 301 4.3 9.6 0.00 0.00 0.00 64 1008.6
20260830195506 72 323 4.3 8.7 0.00 0.00 0.00 64 1008.9
20260830194505 71 350 5.2 10.4 0.00 0.00 0.00 64 1008.7
20260830194004 70 5 5.2 10.4 0.00 0.00 0.00 65 1008.9
20260830193504 71 311 5.2 10.4 0.00 0.00 0.00 65 1008.9
20260830193004 71 306 5.2 10.4 0.00 0.00 0.00 65 1008.9
20260830192505 72 319 4.3 7.8 0.00 0.00 0.00 64 1009.0
20260830192004 71 319 3.5 7.0 0.00 0.00 0.00 65 1009.0
20260830191505 71 318 4.3 11.3 0.00 0.00 0.00 65 1009.0
20260830190503 71 355 4.3 8.7 0.00 0.00 0.00 66 1009.0
20260830190001 71 317 4.3 7.8 0.00 0.00 0.00 66 1009.0
20260830185504 71 313 4.3 8.7 0.00 0.00 0.00 67 1009.1
20260830184457 70 320 5.2 8.7 0.00 0.00 0.00 68 1009.1
20260830183956 71 291 4.3 8.7 0.00 0.00 0.00 66 1009.1
20260830183458 72 311 3.5 7.0 0.00 0.00 0.00 65 1009.1
20260830182955 72 342 2.6 7.0 0.00 0.00 0.00 65 1009.2
20260830182455 73 303 2.6 6.1 0.00 0.00 0.00 65 1009.2
20260830181450 71 77 0.0 4.3 0.00 0.00 0.00 67 1009.1
20260830180950 71 84 0.9 4.3 0.00 0.00 0.00 67 1009.1
20260830175947 69 47 1.7 4.3 0.00 0.00 0.00 71 1009.1
20260830175446 69 86 0.9 4.3 0.00 0.00 0.00 72 1009.0
20260830173936 67 83 0.9 4.3 0.00 0.00 0.00 74 1008.9
20260830173440 67 76 0.9 3.5 0.00 0.00 0.00 75 1008.9
20260830172936 66 90 0.0 3.5 0.00 0.00 0.00 76 1008.9
20260830171934 66 125 0.0 2.6 0.00 0.00 0.00 76 1008.9
20260830171430 66 126 0.0 2.6 0.00 0.00 0.00 78 1008.9
20260830170930 65 127 0.0 0.9 0.00 0.00 0.00 81 1008.6
20260830170427 64 127 0.0 0.9 0.00 0.00 0.00 81 1008.6
20260830165925 64 128 0.0 2.6 0.00 0.00 0.00 82 1008.6
20260830165426 63 128 0.0 2.6 0.00 0.00 0.00 83 1008.6
20260830164929 63 130 0.0 2.6 0.00 0.00 0.00 85 1008.5
20260830164424 62 132 0.0 2.6 0.00 0.00 0.00 87 1008.5
20260830163922 61 133 0.9 2.6 0.00 0.00 0.00 89 1008.6
20260830163423 61 134 0.9 3.5 0.00 0.00 0.00 89 1008.6
20260830162919 61 123 0.0 3.5 0.00 0.00 0.00 91 1008.6
20260830162419 60 333 0.0 1.7 0.00 0.00 0.00 93 1008.5
20260830161917 60 333 0.9 2.6 0.00 0.00 0.00 94 1008.5
20260830161418 59 333 0.9 3.5 0.00 0.00 0.00 95 1008.5
20260830160916 58 333 0.9 3.5 0.00 0.00 0.00 96 1008.6
20260830160415 57 334 0.9 2.6 0.00 0.00 0.00 96 1008.6
20260830155907 57 333 0.9 2.6 0.00 0.00 0.00 96 1008.6
20260830155406 56 333 0.9 2.6 0.00 0.00 0.00 96 1008.9
20260830154904 56 333 0.0 2.6 0.00 0.00 0.00 96 1008.9
20260830154358 55 333 0.0 0.0 0.00 0.00 0.00 96 1008.7
20260830153857 55 333 0.0 0.0 0.00 0.00 0.00 96 1008.9
20260830153357 54 333 0.0 0.0 0.00 0.00 0.00 96 1008.9
20260830152859 54 333 0.0 0.0 0.00 0.00 0.00 96 1008.9
20260830152356 53 333 0.0 0.0 0.00 0.00 0.00 96 1008.9
20260830151853 53 333 0.0 0.0 0.00 0.00 0.00 96 1008.9
20260830150843 52 333 0.0 0.0 0.00 0.00 0.00 96 1008.5
20260830150345 52 333 0.0 0.0 0.00 0.00 0.00 96 1008.5
20260830145343 51 333 0.0 0.0 0.00 0.00 0.00 96 1008.4
20260830144338 51 333 0.0 0.0 0.00 0.00 0.00 96 1008.4
20260830143833 51 333 0.0 0.0 0.00 0.00 0.00 95 1008.4
20260830143328 50 333 0.0 0.0 0.00 0.00 0.00 96 1008.4
20260830142829 50 333 0.0 0.0 0.00 0.00 0.00 96 1008.2
20260830141815 49 333 0.0 0.0 0.00 0.00 0.00 96 1008.2
20260830141310 49 333 0.0 0.0 0.00 0.00 0.00 96 1008.0
20260830140307 48 333 0.0 0.0 0.00 0.00 0.00 95 1008.0
20260830135807 48 333 0.0 0.0 0.00 0.00 0.00 95 1008.0
20260830135308 48 333 0.0 0.0 0.00 0.00 0.00 95 1008.0
20260830134301 48 333 0.0 0.0 0.00 0.00 0.00 95 1008.0
20260830133800 48 333 0.0 0.0 0.00 0.00 0.00 95 1008.0
20260830132759 48 333 0.0 0.0 0.00 0.00 0.00 95 1007.9
20260830132257 48 333 0.0 0.0 0.00 0.00 0.00 95 1007.9
20260830131757 49 333 0.0 0.0 0.00 0.00 0.00 95 1007.9
20260830131252 49 333 0.0 0.0 0.00 0.00 0.00 95 1007.8
20260830130750 49 333 0.0 0.0 0.00 0.00 0.00 95 1007.8
20260830124741 49 333 0.0 0.0 0.00 0.00 0.00 95 1007.7
20260830124234 49 333 0.0 0.0 0.00 0.00 0.00 95 1007.7
20260830123740 49 333 0.0 0.0 0.00 0.00 0.00 95 1007.7
20260830122732 49 333 0.0 0.0 0.00 0.00 0.00 94 1007.6
20260830122229 49 333 0.0 0.0 0.00 0.00 0.00 95 1007.6
20260830121728 49 333 0.0 0.0 0.00 0.00 0.00 95 1007.6
20260830121222 49 333 0.0 0.0 0.00 0.00 0.00 95 1007.7
20260830120718 49 333 0.0 0.0 0.00 0.00 0.00 95 1007.7
20260830120215 49 333 0.0 0.0 0.00 0.00 0.00 94 1007.7
20260830115211 49 333 0.0 0.0 0.00 0.00 0.00 94 1007.7
20260830114708 49 333 0.0 0.0 0.00 0.00 0.00 94 1007.7
20260830113205 49 333 0.0 0.0 0.00 0.00 0.00 95 1007.8
20260830112706 49 333 0.0 0.0 0.00 0.00 0.00 95 1007.8
20260830112201 49 333 0.0 0.0 0.00 0.00 0.00 95 1007.8
20260830111702 49 333 0.0 0.0 0.00 0.00 0.00 95 1007.8
20260830110659 49 333 0.0 0.0 0.00 0.00 0.00 94 1007.7
20260830110154 49 333 0.0 0.0 0.00 0.00 0.00 94 1007.7
20260830105650 49 333 0.0 0.0 0.00 0.00 0.00 94 1007.8
20260830105145 49 333 0.0 0.0 0.00 0.00 0.00 94 1007.8
20260830104644 49 333 0.0 0.0 0.00 0.00 0.00 94 1007.8
20260830104146 49 333 0.0 0.0 0.00 0.00 0.00 94 1007.8
20260830103644 49 333 0.0 0.0 0.00 0.00 0.00 94 1007.8
20260830103142 49 333 0.0 0.0 0.00 0.00 0.00 94 1007.8
20260830102642 49 333 0.0 0.0 0.00 0.00 0.00 94 1007.8
20260830102141 49 333 0.0 0.0 0.00 0.00 0.00 94 1007.8
20260830101635 50 333 0.0 0.0 0.00 0.00 0.00 94 1007.8
20260830101130 50 333 0.0 0.0 0.00 0.00 0.00 94 1007.7
20260830100625 50 333 0.0 0.0 0.00 0.00 0.00 94 1007.7
20260830100124 50 333 0.0 0.0 0.00 0.00 0.00 94 1007.7
20260830095625 50 333 0.0 0.0 0.00 0.00 0.00 93 1007.8
20260830095121 50 333 0.0 0.0 0.00 0.00 0.00 94 1007.8
20260830094620 51 333 0.0 0.0 0.00 0.00 0.00 94 1007.8
20260830094123 51 333 0.0 0.0 0.00 0.00 0.00 94 1007.5
20260830093115 51 333 0.0 0.0 0.00 0.00 0.00 94 1007.5
20260830092615 51 333 0.0 0.0 0.00 0.00 0.00 93 1007.4
20260830092114 51 333 0.0 0.0 0.00 0.00 0.00 94 1007.4
20260830091111 51 333 0.0 0.0 0.00 0.00 0.00 94 1007.4
20260830090612 51 333 0.0 0.0 0.00 0.00 0.00 94 1007.4
20260830090108 51 333 0.0 0.0 0.00 0.00 0.00 94 1007.4
20260830085609 51 333 0.0 0.0 0.00 0.00 0.00 94 1007.5
20260830085104 51 333 0.0 0.0 0.00 0.00 0.00 93 1007.5
20260830084604 52 333 0.0 0.0 0.00 0.00 0.00 93 1007.5
20260830084102 52 333 0.0 0.0 0.00 0.00 0.00 93 1007.5
20260830083600 52 333 0.0 0.0 0.00 0.00 0.00 93 1007.5
20260830083104 52 333 0.0 0.0 0.00 0.00 0.00 94 1007.5
20260830082555 52 333 0.0 0.0 0.00 0.00 0.00 94 1007.7
20260830082056 52 333 0.0 0.0 0.00 0.00 0.00 94 1007.7
20260830081554 52 333 0.0 0.0 0.00 0.00 0.00 94 1007.7
20260830081053 52 333 0.0 0.0 0.00 0.00 0.00 93 1007.8
20260830080548 51 333 0.0 0.0 0.00 0.00 0.00 93 1007.8
20260830080046 51 333 0.0 0.0 0.00 0.00 0.00 93 1007.8
20260830075044 51 333 0.0 0.0 0.00 0.00 0.00 93 1007.8
20260830073541 52 333 0.0 0.0 0.00 0.00 0.00 92 1007.8
20260830073040 52 333 0.0 0.0 0.00 0.00 0.00 92 1007.8
20260830072539 52 333 0.0 0.0 0.00 0.00 0.00 92 1007.9
20260830071032 52 333 0.0 0.0 0.00 0.00 0.00 92 1007.9
20260830070529 52 333 0.0 0.0 0.00 0.00 0.00 92 1007.9
20260830070028 52 333 0.0 0.0 0.00 0.00 0.00 92 1007.9
20260830065524 52 333 0.0 0.0 0.00 0.00 0.00 92 1007.9
20260830065026 53 333 0.0 0.0 0.00 0.00 0.00 92 1007.9
20260830064521 53 333 0.0 0.0 0.00 0.00 0.00 92 1007.9
20260830063524 53 333 0.0 0.0 0.00 0.00 0.00 91 1007.9
20260830063017 53 333 0.0 0.0 0.00 0.00 0.00 91 1007.9
20260830062514 53 333 0.0 0.0 0.00 0.00 0.00 91 1007.9
20260830062012 53 333 0.0 0.0 0.00 0.00 0.00 91 1007.9
20260830061509 53 333 0.0 0.0 0.00 0.00 0.00 91 1007.9
20260830061006 53 333 0.0 0.0 0.00 0.00 0.00 91 1008.1
20260830055502 54 333 0.0 0.0 0.00 0.00 0.00 90 1008.2
20260830054455 54 333 0.0 0.0 0.00 0.00 0.00 90 1008.2
20260830053456 54 333 0.0 0.0 0.00 0.00 0.00 90 1008.3
20260830052449 55 333 0.0 0.0 0.00 0.00 0.00 90 1008.3
20260830051447 55 333 0.0 0.0 0.00 0.00 0.00 90 1008.3
20260830050946 56 333 0.0 0.0 0.00 0.00 0.00 90 1008.4
20260830045950 56 333 0.0 0.0 0.00 0.00 0.00 90 1008.4
20260830045444 56 333 0.0 0.0 0.00 0.00 0.00 90 1008.3
20260830044941 56 333 0.0 0.0 0.00 0.00 0.00 90 1008.3
20260830044441 56 333 0.0 0.0 0.00 0.00 0.00 90 1008.3
20260830043935 57 333 0.0 0.0 0.00 0.00 0.00 90 1008.4
20260830043435 57 333 0.0 0.0 0.00 0.00 0.00 90 1008.4
20260830042935 57 333 0.0 0.0 0.00 0.00 0.00 90 1008.4
20260830042436 57 333 0.0 0.0 0.00 0.00 0.00 89 1008.3
20260830041930 57 333 0.0 0.0 0.00 0.00 0.00 89 1008.3
20260830041428 58 333 0.0 0.0 0.00 0.00 0.00 90 1008.3
20260830040926 58 333 0.0 0.0 0.00 0.00 0.00 90 1008.0
20260830040425 58 333 0.0 1.7 0.00 0.00 0.00 90 1008.0
20260830035924 58 333 0.9 3.5 0.00 0.00 0.00 89 1008.0
20260830035416 58 333 0.9 3.5 0.00 0.00 0.00 89 1007.9
20260830034917 58 333 0.9 2.6 0.00 0.00 0.00 89 1007.9
20260830034415 58 333 0.9 2.6 0.00 0.00 0.00 89 1007.9
20260830033914 58 333 0.9 1.7 0.00 0.00 0.00 88 1007.9
20260830032916 59 333 0.0 2.6 0.00 0.00 0.00 87 1007.9
20260830032411 59 333 0.9 2.6 0.00 0.00 0.00 87 1007.8
20260830030401 60 333 0.9 4.3 0.00 0.00 0.00 86 1007.7
20260830025904 60 333 0.9 4.3 0.00 0.00 0.00 86 1007.6
20260830025358 60 333 1.7 4.3 0.00 0.00 0.00 86 1007.6
20260830024855 60 333 2.6 4.3 0.00 0.00 0.00 86 1007.6
20260830023351 61 313 2.6 7.0 0.00 0.00 0.00 85 1007.5
20260830022847 61 309 3.5 7.0 0.00 0.00 0.00 84 1007.4
20260830022347 61 325 3.5 6.1 0.00 0.00 0.00 84 1007.4
20260830021846 61 325 3.5 6.1 0.00 0.00 0.00 83 1007.4
20260830021345 62 308 3.5 7.0 0.00 0.00 0.00 83 1007.4
20260830020846 62 317 3.5 7.0 0.00 0.00 0.00 83 1007.4
20260830020348 62 320 2.6 5.2 0.00 0.00 0.00 82 1007.4
20260830015846 62 327 3.5 7.0 0.00 0.00 0.00 82 1007.6
20260830015341 63 299 4.3 7.0 0.00 0.00 0.00 81 1007.7
20260830013839 64 310 3.5 7.0 0.00 0.00 0.00 78 1007.8
20260830013339 64 312 4.3 7.8 0.00 0.00 0.00 77 1007.8
20260830012838 65 348 4.3 7.8 0.00 0.00 0.00 76 1007.8
20260830012337 66 301 3.5 7.8 0.00 0.00 0.00 76 1007.8
20260830011832 66 312 4.3 7.8 0.00 0.00 0.00 75 1007.8
20260830011333 66 311 5.2 9.6 0.00 0.00 0.00 76 1007.9
20260830010830 66 316 4.3 9.6 0.00 0.00 0.00 74 1007.9
20260830010330 67 316 3.5 8.7 0.00 0.00 0.00 74 1007.9
20260830005333 67 325 4.3 8.7 0.00 0.00 0.00 74 1007.7
20260830004825 67 309 4.3 8.7 0.00 0.00 0.00 73 1007.7